Location: Unspecified
(0.0000°N, 0.0000°E)
Time: 14:00:14
(UTC+00:00)

OFEQ 7 - Pass Details

Date: 11 June 2023
Orbit: 475 x 482 km, 141.7° (Epoch: 03 October)

Event Time Altitude Azimuth Distance (km) Brightness Sun altitude
Rises 04:29:43 0° 99° (E) 2,430 9.5 -20.6°
Reaches altitude 10° 04:32:07 10° 79° (E) 1,557 8.8 -20.0°
Maximum altitude 04:34:19 17° 35° (NE) 1,176 7.7 -19.5°
Drops below altitude 10° 04:36:30 10° 352° (N) 1,553 7.8 -19.0°
Sets 04:38:54 0° 331° (NNW) 2,422 8.6 -18.5°
